www.pogodaiklimat.ru

Погода и климат >> Архив погоды >> Россия >> Краснодарский край >> Анапа


АРХИВ ПОГОДЫ в Анапе

Время (UTC), дата Ветер
(напр.,м/с)
 
Видим.   Явления Облачность Т
(С)
Тd
(С)
f
(%)
Тe
(С)
Тes
(С)
Комфортность P
(гПа)
Po
(гПа)
Тmin
(С)
Tmax
(С)
R
(мм)
R24
(мм)
S
(см)
15 12.06 В 3 20 км 8/6 300 м
[Cb cap Ci sp]
+26.8 +16.5 53 +30 +31 душно 1007.7 1004.2 +29.3
18 12.06 СВ 1 10 км 8/0
[Ac trans Ci sp]
+24.4 +17.7 66 +28 +28 душно 1008.2 1004.6
21 12.06 СВ 2 10 км 6/0
[Ci fib]
+24.1 +17.2 65 +28 +28 душно 1008.3 1004.8
00 13.06 СВ 2 10 км 6/0
[Ac trans Ci sp]
+21.8 +18.0 79 +26 +26 душно 1008.4 1004.9
03 13.06 СВ 2 10 км 8/4 600 м
[Cb cap Ac trans Ci fib]
+22.2 +19.8 86 +28 +28 душно 1008.7 1005.2 +21.4
06 13.06 Ю 2 20 км 8/4 600 м
[Cb cap Ac cast]
+26.5 +22.3 78 +35 +38 очень
душно
1009.7 1006.2
09 13.06 Ю 7-11
{11}
20 км 9/3 600 м
[Cb cap Ac cast Ci sp]
+25.6 +20.9 75 +32 +34 очень
душно
1010.7 1007.2
12 13.06 Ю 8-10
{11}
20 км 9/4 600 м
[Cb cap Ac cast Ci sp]
+26.0 +20.2 70 +32 +33 очень
душно
1011.1 1007.6
15 13.06 С 1 20 км в посл. час ливневой дождь {гроза} 9/8 600 м
[Cb cap Ac cast Ci sp]
+23.7 +19.2 76 +29 +29 душно 1010.5 1006.9 +27.0 0.3
18 13.06 СВ 1 10 км {гроза, ливн. осадки} 9/3 600 м
[Cb cap Ac trans Ci sp]
+23.0 +18.7 77 +29 +29 очень
душно
1010.4 1006.8
21 13.06 СВ 3 10 км 9/0
[Ac trans Ci sp]
+22.0 +17.9 78 +27 +27 душно 1010.8 1007.2
00 14.06 СВ 3 10 км 9/0
[Ac trans Ci fib]
+21.6 +17.6 78 +26 +26 душно 1011.4 1007.8
03 14.06 СВ 3 20 км 8/1 600 м
[Cu med, cong Ac trans Ci sp]
+21.8 +18.5 82 +27 +27 душно 1011.4 1007.8 +21.3
06 14.06 СВ 2 20 км 5/0
[Ac trans Ci fib]
+25.9 +18.8 65 +31 +39 очень
душно
1012.3 1008.7
09 14.06 СВ 2 20 км 6/0
[Ac trans Ci fib]
+28.8 +17.7 51 +33 +47 очень
душно
1013.0 1009.4
12 14.06 СВ 5
{11}
20 км 3/0
[Ci fib]
+29.4 +17.0 47 +33 +40 душно 1012.5 1009.0
15 14.06 СВ 4
{15}
20 км 3/0
[Ci fib]
+30.3 +16.1 42 +33 +35 душно 1011.7 1008.2 +30.5
18 14.06 СВ 4
{10}
10 км 5/0
[Ci fib]
+27.0 +15.1 48 +30 +30 душно 1012.4 1008.8
21 14.06 СВ 4
{11}
10 км 3/0
[Ci fib]
+24.7 +13.0 48 +27 +27 жарко 1011.8 1008.2
00 15.06 СВ 4 10 км 4/0
[Ci fib]
+23.8 +11.3 45 +25 +25 комфорт 1010.8 1007.2
03 15.06 СВ 3 10 км гроза без осадков 8/4 600 м
[Cb cap Ac trans]
+21.3 +12.2 56 +23 +24 комфорт 1011.2 1007.6 +21.3
06 15.06 СВ 3 20 км {гроза} 8/0
[Ac trans Ci sp]
+27.0 +15.3 49 +30 +35 душно 1010.7 1007.2
09 15.06 СВ 3 20 км 8/0
[Ac As Ci fib]
+29.1 +16.9 48 +33 +41 очень
душно
1010.8 1007.3
12 15.06 СВ 3 20 км 5/0
[Ci fib]
+32.7 +17.3 40 +36 +47 очень
душно
1009.5 1006.0
15 15.06 СВ 4 20 км ясно +32.3 +14.9 35 +34 +36 душно 1008.7 1005.3 +33.1
18 15.06 СВ 4 10 км 1/0
[Ci fib]
+27.5 +15.6 48 +30 +30 жарко 1009.3 1005.8
21 15.06 СВ 2 10 км ясно +26.0 +13.0 45 +28 +28 жарко 1009.3 1005.7
00 16.06 СВ 2 10 км 3/0
[Ci fib]
+23.9 +11.6 46 +25 +25 комфорт 1008.5 1004.9
03 16.06 СВ 3 10 км 1/0
[Ci fib]
+23.7 +12.4 49 +26 +26 жарко 1008.2 1004.6 +23.0
06 16.06 Ю 2 20 км ясно +27.0 +19.3 63 +33 +43 очень
душно
1008.8 1005.3
09 16.06 Ю 3 20 км 3/0
[Ci fib]
+28.7 +20.7 62 +36 +51 опасность
солнечного
удара
1009.2 1005.7
12 16.06 Ю 4 10 км в посл. час гроза 5/4 300 м
[Cb cap Ci sp]
+29.0 +24.3 76 +41 +46 опасность
перегрева
1009.0 1005.5
15 16.06 ЮЗ 1 10 км 4/3 600 м
[Sc Ci fib]
+27.2 +23.7 81 +37 +40 очень
душно
1008.4 1004.9 +29.2
18 16.06 С 2 10 км ясно +26.1 +15.9 53 +29 +29 жарко 1008.0 1004.4
21 16.06 СВ 2 10 км ясно +24.3 +14.0 53 +27 +27 жарко 1008.5 1004.9
00 17.06 СВ 3 10 км ясно +23.6 +14.9 58 +26 +26 жарко 1008.1 1004.5
03 17.06 В 1 20 км ясно +24.6 +12.0 45 +26 +27 жарко 1008.4 1004.8 +22.4
06 17.06 СЗ 1 20 км 1/0
[Ac trans]
+28.3 +16.2 48 +32 +43 душно 1009.3 1005.8
09 17.06 С 3 20 км 1/1 600 м
[Cu hum]
+30.9 +16.9 43 +34 +49 душно 1009.5 1006.0
12 17.06 СВ 4 20 км ясно +32.0 +16.1 38 +35 +44 очень
душно
1009.2 1005.7
15 17.06 С 4 20 км ясно +30.3 +19.2 51 +36 +38 очень
душно
1008.8 1005.3 +32.0
18 17.06 СВ 3
{10}
н/о н/о +26.2 +19.4 66 +32 +32 очень
душно
1009.3 1005.8
21 17.06 СВ 3 10 км ясно +25.7 +15.3 53 +29 +29 душно 1010.4 1006.8
00 18.06 СВ 5-11
{11}
10 км ясно +23.4 +13.8 55 +27 +27 душно 1009.8 1006.2
03 18.06 СВ 6-12
{12}
20 км 1/0
[Ac cast]
+22.6 +12.1 51 +25 +25 комфорт 1010.3 1006.7 +21.5
06 18.06 СВ 5
{12}
20 км ясно +25.9 +13.7 47 +28 +33 жарко 1010.7 1007.2
09 18.06 СВ 6-11
{12}
20 км ясно +29.9 +15.7 42 +33 +40 душно 1010.5 1007.0
12 18.06 СВ 5-12
{12}
20 км ясно +32.2 +14.9 35 +34 +42 душно 1009.9 1006.5
15 18.06 С 5-12
{12}
20 км ясно +30.1 +15.1 40 +32 +34 жарко 1009.5 1006.0 +32.4
18 18.06 СВ 4
{12}
10 км ясно +25.6 +15.9 55 +29 +29 душно 1010.1 1006.5
21 18.06 СВ 3 10 км ясно +23.7 +14.2 55 +26 +26 жарко 1010.5 1006.9
00 19.06 СВ 3 10 км ясно +21.9 +12.9 57 +25 +25 комфорт 1010.1 1006.5
03 19.06 СВ 4 10 км ясно +22.4 +12.3 53 +25 +26 комфорт 1009.8 1006.2 +21.6
06 19.06 СВ 4 20 км ясно +29.3 +12.0 34 +30 +37 жарко 1010.2 1006.7
09 19.06 СВ 5
{12}
20 км ясно +32.1 +12.7 31 +33 +43 жарко 1009.8 1006.3
12 19.06 СВ 5
{11}
20 км ясно +33.3 +13.3 30 +34 +42 очень
жарко
1009.2 1005.7

 

Местоположение метеостанции Анапа (Краснодарский край, Россия): широта 44.88 долгота 37.28 высота над уровнем моря 32 м.

В архиве по умолчанию представлена погода в Анапе за последнюю неделю. Архивные данные за месяц целиком и за предыдущие месяцы, начиная с января 2011 года, Вы можете получить, выбрав интересующий диапазон дат из раскрывающегося списка и нажав кнопку "Ввод!".


*Определитесь, кто Вы:
робот инопланетянин человек

Внимание! Время в таблицах - всемирное. Для получения местного времени необходимо прибавить поправку, которая равна 3 ч.

Смотрите также архив погоды в соседних городах и на ближайших метеорологических станциях:

Погода в Новороссийске (Краснодарский край, Россия) (48 км)
Погода в Темрюке (Краснодарский край, Россия) (50 км)
Погода в Крымске (Краснодарский край, Россия) (57 км)
Погода в Тамани (Краснодарский край, Россия) (58 км)
Погода в Геленджике (Краснодарский край, Россия) (72 км)
Погода в Опасном (Крым, Россия) (75 км)
Погода в Славянске-на-Кубани (Краснодарский край, Россия) (80 км)
Погода в Керчи (Крым, Россия) (86 км)
Погода в Джубге (Краснодарский край, Россия) (129 км)
Погода в Мысовом (Крым, Россия) (131 км)

Пояснения к столбцам:

Ветер - указаны скорость ветра в м/с - средняя за 10 мин, порывы в срок и между сроками (в фигурных скобках) и направление, откуда дует ветер: С - северный, СВ - северо-восточный, В - восточный, ЮВ - юго-восточный, Ю - южный, ЮЗ - юго-западный, З - западный, СЗ - северо-западный.
Видимость - горизонтальная дальность видимости в метрах или километрах. При видимости от 1 до 10 км при отсутствии осадков обычно наблюдается дымка, при ухудшении видимости до 1 км и менее - туман. В сухую погоду видимость может ухудшаться дымом, пылью или мглою.
Явления - указаны атмосферные явления, наблюдавшиеся в срок или в последний час перед сроком; фигурными скобками обозначены явления, наблюдавшиеся между сроками (за 1-3 часа до срока); квадратными скобками обозначены град или гололедные отложения с указанием их диаметра в мм.
Облачность - указаны через наклонную черту общая и нижняя облачность в баллах и высота нижней границы облаков в метрах; квадратными скобками обозначены формы облаков: Ci - перистые, Cs - перисто-слоистые, Cc - перисто-кучевые, Ac - высококучевые, As - высокослоистые, Sc - слоисто-кучевые, Ns - слоисто-дождевые, Cu - кучевые, Cb - кучево-дождевые. Подробнее классификацию облаков см. в Атласе облаков (PDF).
T - Температура воздуха - температура, измеренная на высоте 2 м над землей.
Td - Температура точки росы - температура, при понижении до которой содержащийся в воздухе водяной пар достигнет насыщения.
f - Относительная влажность воздуха - влажноcть воздуха, измеренная на высоте 2 м над землей.
Te - Эффективная температура - температура, которую ощущает одетый по сезону человек в тени. Характеристика душности погоды. При расчете учитывается влияние влажности воздуха и скорости ветра на теплоощущения человека.
Tes - Эффективная температура на солнце - температура, которую ощущает человек, с поправкой на солнечный нагрев. Характеристика знойности погоды. Зависит от высоты солнца над горизонтом, облачности и скорости ветра. Ночью, в пасмурную погоду, а также при ветре 12 м/с и более поправка равна нулю.
P - Атмосферное давление - приведенное к уровню моря атмосферное давление.
Po - Атмосферное давление - измеренное на уровне метеостанции атмосферное давление.
Tmin - Минимальная температура - минимум температуры воздуха на высоте 2 м над землей.
Tmax - Максимальная температура - максимум температуры воздуха на высоте 2 м над землей.
R - Количество осадков - Количество выпавших осадков за период времени, мм. При наведении курсора мыши на число - период времени, за который выпало указанное количество осадков.
R24 - Количество осадков - Количество выпавших осадков за 24 часа, мм.
S - Снежный покров - Высота снежного покрова, см. При наведении курсора мыши на число - состояние снежного покрова и степень покрытия местности в баллах.